Flag for Paraguay Weather past 2 weeks in Asuncion, Paraguay

Now
64 °F

Clear.


Feels Like: 64 °F
Forecast: 64 / 87 °F
Wind: 2 mph from South

Location: Asuncion / Aeropuerto

Current Time: Mar 31, 2015 at 3:13:44 AM

Latest Report: Mar 31, 2015 at 2:00 AM


Visibility: 10 mi

Pressure: 29.92 "Hg

Humidity: 94%

Dew point: 63 °F

Location of AsuncionLocation

Historic Weather in Asuncion — Graph

°F

Asuncion temperature yesterday

Maximum temperature yesterday: 84 °F (at 2:00 PM)
Minimum temperature yesterday: 66 °F (at 6:00 AM)
Average temperature yesterday: 73 °F

Past Weeks' High & Low Weather Summary

 TemperatureHumidityPressure
High97 °F (Mar 17, 3:00 PM)100% (Mar 26, 10:00 AM)30.07 "Hg (Mar 26, 10:00 AM)
Low59 °F (Mar 23, 6:00 AM)27% (Mar 22, 2:00 PM)29.77 "Hg (Mar 16, 6:00 PM)
Average78 °F73%29.92 "Hg
* Reported Mar 16 4:00 AM — Mar 31 2:00 AM, Asuncion, Weather by CustomWeather, © 2015

Note: Actual official high and low records may vary slightly from our data, if they occured in-between our weather recording intervals... More about our weather records

Advertising

Asuncion weather history for previous 24 hours

 ConditionsComfort  
Time TempWeatherWind HumidityBarometerVisibility
2:00 AM
Tue, Mar 31
64 °FClear.2 mph94%29.92 "Hg10 mi
1:00 AM66 °FClear.3 mph94%29.92 "Hg10 mi
12:00 AM68 °FClear.No wind88%29.92 "Hg10 mi
11:00 PM
Mon, Mar 30
70 °FClear.7 mph88%29.92 "Hg10 mi
10:00 PM70 °FClear.5 mph88%29.92 "Hg10 mi
9:00 PM72 °FClear.7 mph83%29.92 "Hg10 mi
8:00 PM70 °FClear.3 mph88%29.89 "Hg6 mi
7:00 PM72 °FClear.No wind88%29.86 "Hg10 mi
6:00 PM75 °FClear.5 mph78%29.86 "Hg10 mi
5:00 PM81 °FPassing clouds.6 mph62%29.86 "HgN/A
4:00 PM81 °FScattered clouds.3 mph66%29.86 "HgN/A
3:00 PM81 °FScattered clouds.5 mph66%29.86 "HgN/A
2:00 PM84 °FPartly sunny.3 mph55%29.86 "HgN/A
1:00 PM79 °FPartly sunny.2 mph65%29.89 "HgN/A
12:00 PM82 °FPartly sunny.2 mph62%29.92 "HgN/A
11:00 AM79 °FPartly sunny.3 mph65%29.95 "HgN/A
10:00 AM75 °FPartly sunny.3 mph74%29.95 "HgN/A
9:30 AM75 °FPartly sunny.5 mph74%29.95 "HgN/A
9:00 AM75 °FPartly sunny.No wind74%29.95 "HgN/A
8:30 AM73 °FPartly sunny.No wind74%29.92 "HgN/A
8:00 AM70 °FPartly sunny.No wind83%29.92 "HgN/A
7:30 AM70 °FBroken clouds.No wind83%29.92 "HgN/A
7:00 AM68 °FBroken clouds.No wind94%29.92 "HgN/A
6:00 AM66 °FBroken clouds.No wind100%29.89 "HgN/A
5:00 AM68 °FMostly cloudy.3 mph88%29.89 "HgN/A
3:00 AM68 °FPartly cloudy.No wind94%29.89 "HgN/A
Weather by CustomWeather, © 2015

See weather overviewHow to use our weather pages